Helena, MT

1:11 AM MST on February 27, 2017 (GMT -0700)
Helena Regional

Weather History for KHLN - January, 2014

Change the Weather History Date:

Sunday, January 26, 2014

  Actual Average Record
Temperature  
Mean Temperature 31 °F 25 °F  
Max Temperature 41 °F 35 °F 57 °F (2003)
Min Temperature 20 °F 14 °F -41 °F (1957)
Degree Days  
Heating Degree Days 34 40  
Month to date heating degree days 883 1097  
Since 1 July heating degree days 3941 4318  
Cooling Degree Days 0 0  
Month to date cooling degree days 0 0  
Year to date cooling degree days 0 0  
Moisture  
Dew Point 18 °F    
Average Humidity 68    
Maximum Humidity 89    
Minimum Humidity 46    
Precipitation  
Precipitation 0.01 in 0.02 in 0.60 in (1893)
Month to date precipitation 0.43 0.31  
Year to date precipitation 0.43 0.31  
Snow  
Snow 0.10 in 0.20 in 7.90 in (1975)
Month to date snowfall 5.0 5.2  
Since 1 July snowfall 9.7 21.3  
Snow Depth T in    
Sea Level Pressure  
Sea Level Pressure 30.32 in    
Wind  
Wind Speed 7 mph (NNW)    
Max Wind Speed 31 mph    
Max Gust Speed 38 mph    
Visibility 9 miles    
Events Snow    
T = Trace of Precipitation, MM = Missing Value Source: NWS Daily Summary

Daily Weather History Graph

Daily Weather History Graph

Search for Another Location

Airport or City:

Trip Planner

Search our weather history database for the weather conditions in past years. The results will help you decide how hot, cold, wet, or windy it might be!

Date:

Astronomy

Jan. 26, 2014 Rise Set
Actual Time 7:58 AM MST 5:22 PM MST
Civil Twilight 7:25 AM MST 5:55 PM MST
Nautical Twilight 6:49 AM MST 6:32 PM MST
Astronomical Twilight 6:13 AM MST 7:08 PM MST
Moon 3:41 AM MST (1/26) 1:13 PM MST (1/26)
Length of Visible Light 10h 30m
Length of Day
9h 24m
Waning Crescent, 23% of the Moon is Illuminated
Jan 26
Waning Crescent
Jan 30
New
Feb 6
First Quarter
Feb 14
Full
Feb 22
Last Quarter

Hourly Weather History & Observations

Time (MST) Temp. Windchill Dew Point Humidity Pressure Visibility Wind Dir Wind Speed Gust Speed Precip Events Conditions
12:53 AM 28.9 °F - 24.1 °F 82% 30.19 in 10.0 mi Calm Calm - N/A   Overcast
1:53 AM 30.0 °F - 24.1 °F 79% 30.15 in 10.0 mi Calm Calm - N/A   Overcast
2:53 AM 30.0 °F - 24.1 °F 79% 30.12 in 10.0 mi Calm Calm - N/A   Overcast
3:53 AM 35.1 °F 30.1 °F 19.9 °F 54% 30.09 in 10.0 mi East 5.8 mph - N/A   Mostly Cloudy
4:53 AM 32.0 °F - 19.9 °F 61% 30.12 in 10.0 mi Calm Calm - N/A   Scattered Clouds
5:53 AM 32.0 °F 27.5 °F 19.9 °F 61% 30.11 in 10.0 mi East 4.6 mph - N/A   Clear
6:53 AM 34.0 °F - 19.9 °F 56% 30.15 in 10.0 mi Calm Calm - N/A   Overcast
7:53 AM 35.1 °F 26.9 °F 28.0 °F 76% 30.22 in 10.0 mi North 11.5 mph - N/A   Overcast
8:35 AM 33.8 °F 25.8 °F 30.2 °F 87% 30.14 in 4.0 mi WNW 10.4 mph - 0.00 in Snow Light Snow
8:53 AM 35.1 °F 25.9 °F 30.9 °F 85% 30.27 in 4.0 mi NW 13.8 mph 19.6 mph 0.01 in Snow Light Snow
9:17 AM 35.6 °F 26.2 °F 30.2 °F 81% 30.17 in 5.0 mi North 15.0 mph 21.9 mph 0.00 in Snow Light Snow
9:53 AM 34.0 °F 26.0 °F 30.0 °F 85% 30.31 in 8.0 mi WNW 10.4 mph - 0.00 in Snow Light Snow
10:23 AM 33.8 °F 25.8 °F 28.4 °F 81% 30.20 in 7.0 mi NW 10.4 mph - 0.00 in Snow Light Snow
10:51 AM 33.8 °F 24.3 °F 28.4 °F 81% 30.22 in 9.0 mi NW 13.8 mph 17.3 mph 0.00 in Snow Light Snow
10:53 AM 34.0 °F 25.5 °F 28.9 °F 82% 30.36 in 9.0 mi NW 11.5 mph - 0.00 in   Overcast
11:53 AM 28.9 °F 14.8 °F 23.0 °F 78% 30.43 in 10.0 mi NNW 24.2 mph 32.2 mph N/A   Overcast
12:53 PM 27.0 °F 13.2 °F 12.9 °F 56% 30.48 in 10.0 mi NW 20.7 mph 31.1 mph N/A   Overcast
1:53 PM 25.0 °F 14.2 °F 9.0 °F 51% 30.49 in 10.0 mi NNW 11.5 mph - N/A   Overcast
2:53 PM 24.1 °F 12.5 °F 6.1 °F 46% 30.50 in 10.0 mi North 12.7 mph - N/A   Overcast
3:53 PM 24.1 °F 14.4 °F 6.1 °F 46% 30.48 in 10.0 mi NNW 9.2 mph - N/A   Overcast
4:53 PM 21.9 °F 11.7 °F 8.1 °F 55% 30.50 in 10.0 mi NNW 9.2 mph - N/A   Overcast
5:53 PM 21.9 °F 14.5 °F 9.0 °F 58% 30.48 in 10.0 mi NNW 5.8 mph - N/A   Overcast
6:53 PM 21.9 °F 14.5 °F 10.0 °F 60% 30.45 in 10.0 mi WNW 5.8 mph - N/A   Overcast
7:53 PM 21.0 °F - 10.9 °F 65% 30.45 in 10.0 mi Calm Calm - N/A   Overcast
8:53 PM 21.0 °F 16.2 °F 10.0 °F 63% 30.43 in 10.0 mi NNW 3.5 mph - N/A   Overcast
9:53 PM 21.0 °F - 10.0 °F 63% 30.43 in 10.0 mi Calm Calm - N/A   Overcast
10:53 PM 21.0 °F - 10.9 °F 65% 30.41 in 10.0 mi Calm Calm - N/A   Overcast
11:53 PM 19.9 °F - 10.9 °F 68% 30.43 in 10.0 mi Calm Calm - N/A   Overcast